Terug naar catalogus

AMC-5

GE-5

ActiefCommunicatieGEO
NORAD 25516·PAYLOAD·🇱🇺 Luxembourg

Gelanceerd Oct 28, 1998 vanaf Guiana Space Centre

Loading…

TLE

VersSource: Space-Track

Epoch: Sep 14, 2026, 05:58 UTC

1 25516U 98063B   26257.24873086 -.00000306  00000-0  00000-0 0  9995
2 25516  11.6011  39.4153 0001979 137.6494  57.4099  0.99336876101711

Volg AMC-5 in realtime met AllMySat

Download on the App Store